Time,TemperatureF,DewpointF,PressureIn,WindDirection,WindDirectionDegrees,WindSpeedMPH,WindSpeedGustMPH,Humidity,HourlyPrecipIn,Conditions,Clouds,dailyrainin,SolarRadiationWatts/m^2,SoftwareType,DateUTC
2013-03-26 00:00:00,18.9,15.6,30.40,NW,318,2.0,5.0,87,0.00,,,0.00,0.0,meteohub,2013-03-26 05:00:00,
2013-03-26 00:06:00,19.0,15.8,30.40,WSW,254,4.0,5.0,87,0.00,,,0.00,0.0,meteohub,2013-03-26 05:06:00,
2013-03-26 00:11:00,18.9,15.4,30.40,West,269,1.0,5.0,86,0.00,,,0.00,0.0,meteohub,2013-03-26 05:11:00,
2013-03-26 00:16:00,18.9,15.4,30.40,West,270,2.0,5.0,86,0.00,,,0.00,0.0,meteohub,2013-03-26 05:16:00,
2013-03-26 00:21:00,18.7,15.3,30.40,West,272,2.0,4.0,86,0.00,,,0.00,0.0,meteohub,2013-03-26 05:21:00,
2013-03-26 00:26:00,18.3,14.9,30.40,West,277,2.0,4.0,86,0.00,,,0.00,0.0,meteohub,2013-03-26 05:26:00,
2013-03-26 00:31:00,18.0,14.7,30.40,WNW,288,2.0,4.0,87,0.00,,,0.00,0.0,meteohub,2013-03-26 05:31:00,
2013-03-26 00:36:00,17.8,14.5,30.40,West,271,2.0,4.0,87,0.00,,,0.00,0.0,meteohub,2013-03-26 05:36:00,
2013-03-26 00:41:00,17.6,14.4,30.40,West,277,1.0,4.0,87,0.00,,,0.00,0.0,meteohub,2013-03-26 05:41:00,
2013-03-26 00:46:00,17.6,14.4,30.40,West,278,2.0,4.0,87,0.00,,,0.00,0.0,meteohub,2013-03-26 05:46:00,
2013-03-26 00:51:00,17.2,14.0,30.40,West,278,1.0,4.0,87,0.00,,,0.00,0.0,meteohub,2013-03-26 05:51:00,
2013-03-26 00:57:00,17.2,14.0,30.40,NW,313,1.0,4.0,87,0.00,,,0.00,0.0,meteohub,2013-03-26 05:57:00,
2013-03-26 01:02:00,17.4,14.2,30.40,West,280,1.0,4.0,87,0.00,,,0.00,0.0,meteohub,2013-03-26 06:02:00,
2013-03-26 01:07:00,17.4,14.2,30.40,NNW,336,1.0,5.0,87,0.00,,,0.00,0.0,meteohub,2013-03-26 06:07:00,
2013-03-26 01:12:00,17.4,14.2,30.40,West,273,2.0,6.0,87,0.00,,,0.00,0.0,meteohub,2013-03-26 06:12:00,
2013-03-26 01:17:00,17.4,14.0,30.40,West,279,1.0,6.0,86,0.00,,,0.00,0.0,meteohub,2013-03-26 06:17:00,
2013-03-26 01:22:00,17.2,13.8,30.40,WNW,285,0.0,6.0,86,0.00,,,0.00,0.0,meteohub,2013-03-26 06:22:00,
2013-03-26 01:27:00,17.1,13.6,30.40,NW,313,0.0,4.0,86,0.00,,,0.00,0.0,meteohub,2013-03-26 06:27:00,
2013-03-26 01:32:00,17.2,13.8,30.40,WNW,284,1.0,4.0,86,0.00,,,0.00,0.0,meteohub,2013-03-26 06:32:00,
2013-03-26 01:37:00,17.2,13.8,30.40,NW,319,1.0,5.0,86,0.00,,,0.00,0.0,meteohub,2013-03-26 06:37:00,
2013-03-26 01:42:00,17.1,13.6,30.39,NNW,339,4.0,5.0,86,0.00,,,0.00,0.0,meteohub,2013-03-26 06:42:00,
2013-03-26 01:47:00,17.1,13.6,30.40,West,276,3.0,6.0,86,0.00,,,0.00,0.0,meteohub,2013-03-26 06:47:00,
2013-03-26 01:52:00,16.9,13.5,30.40,NW,315,2.0,6.0,86,0.00,,,0.00,0.0,meteohub,2013-03-26 06:52:00,
2013-03-26 01:57:00,16.7,13.3,30.40,WNW,284,3.0,6.0,86,0.00,,,0.00,0.0,meteohub,2013-03-26 06:57:00,
2013-03-26 02:02:00,16.5,13.1,30.39,WNW,293,0.0,4.0,86,0.00,,,0.00,0.0,meteohub,2013-03-26 07:02:00,
2013-03-26 02:07:00,16.3,12.9,30.39,NW,319,1.0,4.0,86,0.00,,,0.00,0.0,meteohub,2013-03-26 07:07:00,
2013-03-26 02:12:00,16.3,12.9,30.39,NNW,337,0.0,4.0,86,0.00,,,0.00,0.0,meteohub,2013-03-26 07:12:00,
2013-03-26 02:17:00,16.3,12.9,30.39,West,281,4.0,4.0,86,0.00,,,0.00,0.0,meteohub,2013-03-26 07:17:00,
2013-03-26 02:22:00,16.3,12.9,30.39,NW,305,1.0,4.0,86,0.00,,,0.00,0.0,meteohub,2013-03-26 07:22:00,
2013-03-26 02:27:00,16.0,12.6,30.39,NW,305,1.0,4.0,86,0.00,,,0.00,0.0,meteohub,2013-03-26 07:27:00,
2013-03-26 02:32:00,15.6,12.2,30.39,WNW,303,1.0,4.0,86,0.00,,,0.00,0.0,meteohub,2013-03-26 07:32:00,
2013-03-26 02:37:00,15.4,12.2,30.39,WNW,303,0.0,2.0,87,0.00,,,0.00,0.0,meteohub,2013-03-26 07:37:00,
2013-03-26 02:42:00,15.3,12.0,30.39,WNW,303,0.0,2.0,87,0.00,,,0.00,0.0,meteohub,2013-03-26 07:42:00,
2013-03-26 02:47:00,15.1,11.8,30.39,West,278,0.0,2.0,87,0.00,,,0.00,0.0,meteohub,2013-03-26 07:47:00,
2013-03-26 02:52:00,14.9,11.7,30.39,West,278,1.0,3.0,87,0.00,,,0.00,0.0,meteohub,2013-03-26 07:52:00,
2013-03-26 02:57:00,14.5,11.3,30.39,West,278,2.0,3.0,87,0.00,,,0.00,0.0,meteohub,2013-03-26 07:57:00,
2013-03-26 03:02:00,14.5,11.3,30.39,West,278,2.0,3.0,87,0.00,,,0.00,0.0,meteohub,2013-03-26 08:02:00,
2013-03-26 03:07:00,14.4,11.1,30.39,WNW,288,0.0,3.0,87,0.00,,,0.00,0.0,meteohub,2013-03-26 08:07:00,
2013-03-26 03:12:00,14.2,10.9,30.39,WNW,288,1.0,3.0,87,0.00,,,0.00,0.0,meteohub,2013-03-26 08:12:00,
2013-03-26 03:17:00,14.0,10.9,30.39,WNW,288,2.0,3.0,87,0.00,,,0.00,0.0,meteohub,2013-03-26 08:17:00,
2013-03-26 03:22:00,13.8,10.9,30.39,WNW,288,2.0,2.0,88,0.00,,,0.00,0.0,meteohub,2013-03-26 08:22:00,
2013-03-26 03:27:00,13.6,10.8,30.39,WNW,284,2.0,3.0,88,0.00,,,0.00,0.0,meteohub,2013-03-26 08:27:00,
2013-03-26 03:32:00,13.6,10.8,30.39,WNW,284,0.0,3.0,88,0.00,,,0.00,0.0,meteohub,2013-03-26 08:32:00,
2013-03-26 03:37:00,13.5,10.6,30.39,WNW,284,0.0,3.0,88,0.00,,,0.00,0.0,meteohub,2013-03-26 08:37:00,
2013-03-26 03:42:00,13.3,10.4,30.39,WNW,284,0.0,3.0,88,0.00,,,0.00,0.0,meteohub,2013-03-26 08:42:00,
2013-03-26 03:47:00,13.1,10.4,30.39,WNW,284,2.0,2.0,89,0.00,,,0.00,0.0,meteohub,2013-03-26 08:47:00,
2013-03-26 03:52:00,12.9,10.2,30.39,WNW,284,1.0,2.0,89,0.00,,,0.00,0.0,meteohub,2013-03-26 08:52:00,
2013-03-26 03:57:00,12.7,10.0,30.39,WNW,284,1.0,2.0,89,0.00,,,0.00,0.0,meteohub,2013-03-26 08:57:00,
2013-03-26 04:02:00,12.6,9.9,30.40,WNW,284,2.0,2.0,89,0.00,,,0.00,0.0,meteohub,2013-03-26 09:02:00,
2013-03-26 04:07:00,12.6,9.9,30.39,WNW,284,1.0,2.0,89,0.00,,,0.00,0.0,meteohub,2013-03-26 09:07:00,
2013-03-26 04:12:00,12.6,9.9,30.40,WNW,284,0.0,2.0,89,0.00,,,0.00,0.0,meteohub,2013-03-26 09:12:00,
2013-03-26 04:17:00,12.4,9.7,30.40,WNW,284,0.0,2.0,89,0.00,,,0.00,0.0,meteohub,2013-03-26 09:17:00,
2013-03-26 04:22:00,12.2,9.5,30.40,WNW,284,2.0,2.0,89,0.00,,,0.00,0.0,meteohub,2013-03-26 09:22:00,
2013-03-26 04:27:00,12.2,9.5,30.40,WNW,284,2.0,2.0,89,0.00,,,0.00,0.0,meteohub,2013-03-26 09:27:00,
2013-03-26 04:32:00,12.4,9.7,30.40,West,261,2.0,3.0,89,0.00,,,0.00,0.0,meteohub,2013-03-26 09:32:00,
2013-03-26 04:37:00,12.4,9.7,30.40,West,261,2.0,3.0,89,0.00,,,0.00,0.0,meteohub,2013-03-26 09:37:00,
2013-03-26 04:42:00,12.4,9.7,30.40,West,262,1.0,4.0,89,0.00,,,0.00,0.0,meteohub,2013-03-26 09:42:00,
2013-03-26 04:47:00,12.4,9.7,30.40,West,262,0.0,4.0,89,0.00,,,0.00,0.0,meteohub,2013-03-26 09:47:00,
2013-03-26 04:52:00,12.2,9.5,30.40,West,262,0.0,4.0,89,0.00,,,0.00,0.0,meteohub,2013-03-26 09:52:00,
2013-03-26 04:58:00,12.6,9.9,30.40,West,264,1.0,5.0,89,0.00,,,0.00,0.0,meteohub,2013-03-26 09:58:00,
2013-03-26 05:03:00,12.6,9.9,30.40,West,275,2.0,5.0,89,0.00,,,0.00,0.0,meteohub,2013-03-26 10:03:00,
2013-03-26 05:08:00,12.6,9.9,30.40,West,263,1.0,5.0,89,0.00,,,0.00,0.0,meteohub,2013-03-26 10:08:00,
2013-03-26 05:13:00,12.7,10.0,30.40,WSW,257,0.0,3.0,89,0.00,,,0.00,0.0,meteohub,2013-03-26 10:13:00,
2013-03-26 05:18:00,12.7,10.0,30.40,West,273,2.0,4.0,89,0.00,,,0.00,0.0,meteohub,2013-03-26 10:18:00,
2013-03-26 05:23:00,12.7,10.0,30.40,West,269,1.0,4.0,89,0.00,,,0.00,0.0,meteohub,2013-03-26 10:23:00,
2013-03-26 05:28:00,13.1,10.4,30.40,West,280,3.0,4.0,89,0.00,,,0.00,0.0,meteohub,2013-03-26 10:28:00,
2013-03-26 05:33:00,13.3,10.6,30.40,West,277,3.0,4.0,89,0.00,,,0.00,0.0,meteohub,2013-03-26 10:33:00,
2013-03-26 05:38:00,13.5,10.8,30.40,West,265,1.0,4.0,89,0.00,,,0.00,0.0,meteohub,2013-03-26 10:38:00,
2013-03-26 05:43:00,13.5,10.6,30.40,West,275,1.0,5.0,88,0.00,,,0.00,0.0,meteohub,2013-03-26 10:43:00,
2013-03-26 05:48:00,13.3,10.4,30.40,West,276,2.0,5.0,88,0.00,,,0.00,0.0,meteohub,2013-03-26 10:48:00,
2013-03-26 05:53:00,13.3,10.4,30.40,West,276,1.0,4.0,88,0.00,,,0.00,0.0,meteohub,2013-03-26 10:53:00,
2013-03-26 05:58:00,13.1,10.4,30.40,West,276,1.0,4.0,89,0.00,,,0.00,0.0,meteohub,2013-03-26 10:58:00,
2013-03-26 06:03:00,13.1,10.4,30.40,West,276,0.0,4.0,89,0.00,,,0.00,0.0,meteohub,2013-03-26 11:03:00,
2013-03-26 06:08:00,12.9,10.2,30.40,West,276,0.0,3.0,89,0.00,,,0.00,0.0,meteohub,2013-03-26 11:08:00,
2013-03-26 06:13:00,12.7,10.0,30.40,West,279,0.0,3.0,89,0.00,,,0.00,0.0,meteohub,2013-03-26 11:13:00,
2013-03-26 06:18:00,12.7,10.0,30.40,West,279,0.0,3.0,89,0.00,,,0.00,0.0,meteohub,2013-03-26 11:18:00,
2013-03-26 06:23:00,12.9,10.2,30.40,West,277,0.0,3.0,89,0.00,,,0.00,0.0,meteohub,2013-03-26 11:23:00,
2013-03-26 06:28:00,12.9,10.2,30.40,WNW,288,0.0,3.0,89,0.00,,,0.00,0.0,meteohub,2013-03-26 11:28:00,
2013-03-26 06:33:00,12.9,10.2,30.40,WNW,288,1.0,3.0,89,0.00,,,0.00,0.0,meteohub,2013-03-26 11:33:00,
2013-03-26 06:38:00,12.9,10.2,30.40,NNW,346,0.0,2.0,89,0.00,,,0.00,0.0,meteohub,2013-03-26 11:38:00,
2013-03-26 06:43:00,12.9,10.2,30.40,NW,312,0.0,3.0,89,0.00,,,0.00,0.0,meteohub,2013-03-26 11:43:00,
2013-03-26 06:48:00,12.7,10.0,30.40,NW,313,0.0,3.0,89,0.00,,,0.00,0.0,meteohub,2013-03-26 11:48:00,
2013-03-26 06:53:00,12.6,9.9,30.40,West,279,0.0,3.0,89,0.00,,,0.00,0.0,meteohub,2013-03-26 11:53:00,
2013-03-26 06:58:00,12.4,9.7,30.41,West,273,2.0,3.0,89,0.00,,,0.00,0.0,meteohub,2013-03-26 11:58:00,
2013-03-26 07:03:00,12.6,10.2,30.41,West,268,2.0,3.0,90,0.00,,,0.00,0.0,meteohub,2013-03-26 12:03:00,
2013-03-26 07:08:00,12.6,9.9,30.41,West,268,3.0,6.0,89,0.00,,,0.00,0.0,meteohub,2013-03-26 12:08:00,
2013-03-26 07:13:00,12.2,9.5,30.41,West,274,1.0,6.0,89,0.00,,,0.00,0.0,meteohub,2013-03-26 12:13:00,
2013-03-26 07:18:00,12.4,9.7,30.41,WNW,288,2.0,6.0,89,0.00,,,0.00,5.0,meteohub,2013-03-26 12:18:00,
2013-03-26 07:23:00,12.0,9.3,30.42,West,265,2.0,5.0,89,0.00,,,0.00,7.0,meteohub,2013-03-26 12:23:00,
2013-03-26 07:28:00,12.0,9.3,30.42,West,265,1.0,5.0,89,0.00,,,0.00,9.0,meteohub,2013-03-26 12:28:00,
2013-03-26 07:33:00,12.0,9.3,30.42,West,265,1.0,5.0,89,0.00,,,0.00,11.0,meteohub,2013-03-26 12:33:00,
2013-03-26 07:38:00,12.0,9.3,30.42,WSW,249,2.0,3.0,89,0.00,,,0.00,12.0,meteohub,2013-03-26 12:38:00,
2013-03-26 07:43:00,12.0,9.3,30.42,West,266,0.0,3.0,89,0.00,,,0.00,14.0,meteohub,2013-03-26 12:43:00,
2013-03-26 07:48:00,12.0,9.3,30.42,West,277,2.0,3.0,89,0.00,,,0.00,16.0,meteohub,2013-03-26 12:48:00,
2013-03-26 07:53:00,12.0,9.3,30.43,WNW,301,1.0,4.0,89,0.00,,,0.00,18.0,meteohub,2013-03-26 12:53:00,
2013-03-26 07:58:00,11.8,9.1,30.43,West,280,2.0,4.0,89,0.00,,,0.00,21.0,meteohub,2013-03-26 12:58:00,
2013-03-26 08:03:00,11.8,9.1,30.43,West,271,1.0,4.0,89,0.00,,,0.00,23.0,meteohub,2013-03-26 13:03:00,
2013-03-26 08:08:00,12.0,9.3,30.43,North,5,2.0,4.0,89,0.00,,,0.00,25.0,meteohub,2013-03-26 13:08:00,
2013-03-26 08:14:00,12.0,9.1,30.43,West,279,1.0,4.0,88,0.00,,,0.00,26.0,meteohub,2013-03-26 13:14:00,
2013-03-26 08:19:00,12.2,9.3,30.43,NNW,336,0.0,4.0,88,0.00,,,0.00,28.0,meteohub,2013-03-26 13:19:00,
2013-03-26 08:24:00,12.4,9.5,30.43,West,274,2.0,4.0,88,0.00,,,0.00,33.0,meteohub,2013-03-26 13:24:00,
2013-03-26 08:29:00,12.4,9.5,30.43,WSW,249,4.0,4.0,88,0.00,,,0.00,32.0,meteohub,2013-03-26 13:29:00,
2013-03-26 08:34:00,12.6,9.7,30.43,WSW,258,1.0,6.0,88,0.00,,,0.00,35.0,meteohub,2013-03-26 13:34:00,
2013-03-26 08:39:00,12.7,9.9,30.43,West,281,2.0,6.0,88,0.00,,,0.00,37.0,meteohub,2013-03-26 13:39:00,
2013-03-26 08:44:00,13.1,10.2,30.43,West,271,3.0,6.0,88,0.00,,,0.00,37.0,meteohub,2013-03-26 13:44:00,
2013-03-26 08:49:00,13.3,10.4,30.43,West,280,1.0,4.0,88,0.00,,,0.00,44.0,meteohub,2013-03-26 13:49:00,
2013-03-26 08:54:00,13.5,10.4,30.43,WNW,285,2.0,4.0,87,0.00,,,0.00,53.0,meteohub,2013-03-26 13:54:00,
2013-03-26 08:59:00,13.8,10.8,30.43,West,275,3.0,4.0,87,0.00,,,0.00,46.0,meteohub,2013-03-26 13:59:00,
2013-03-26 09:04:00,14.2,10.9,30.42,West,267,1.0,4.0,87,0.00,,,0.00,46.0,meteohub,2013-03-26 14:04:00,
2013-03-26 09:09:00,14.4,11.1,30.42,WSW,256,2.0,4.0,87,0.00,,,0.00,46.0,meteohub,2013-03-26 14:09:00,
2013-03-26 09:14:00,14.5,11.1,30.43,WSW,257,4.0,4.0,86,0.00,,,0.00,90.0,meteohub,2013-03-26 14:14:00,
2013-03-26 09:19:00,14.9,11.5,30.43,West,263,2.0,5.0,86,0.00,,,0.00,51.0,meteohub,2013-03-26 14:19:00,
2013-03-26 09:24:00,15.3,11.8,30.43,WSW,258,3.0,5.0,86,0.00,,,0.00,53.0,meteohub,2013-03-26 14:24:00,
2013-03-26 09:29:00,15.4,12.0,30.42,West,272,2.0,6.0,86,0.00,,,0.00,93.0,meteohub,2013-03-26 14:29:00,
2013-03-26 09:34:00,15.8,12.0,30.43,West,281,2.0,6.0,85,0.00,,,0.00,148.0,meteohub,2013-03-26 14:34:00,
2013-03-26 09:39:00,16.0,12.2,30.43,West,275,1.0,6.0,85,0.00,,,0.00,160.0,meteohub,2013-03-26 14:39:00,
2013-03-26 09:44:00,16.3,12.6,30.43,West,269,3.0,4.0,85,0.00,,,0.00,130.0,meteohub,2013-03-26 14:44:00,
2013-03-26 09:49:00,16.2,12.2,30.43,WSW,254,5.0,5.0,84,0.00,,,0.00,167.0,meteohub,2013-03-26 14:49:00,
2013-03-26 09:54:00,16.3,12.4,30.43,WSW,258,4.0,5.0,84,0.00,,,0.00,214.0,meteohub,2013-03-26 14:54:00,
2013-03-26 09:59:00,16.5,12.6,30.44,WNW,286,3.0,5.0,84,0.00,,,0.00,169.0,meteohub,2013-03-26 14:59:00,
2013-03-26 10:04:00,16.7,12.7,30.43,WNW,285,3.0,6.0,84,0.00,,,0.00,197.0,meteohub,2013-03-26 15:04:00,
2013-03-26 10:09:00,16.9,12.9,30.43,West,272,3.0,6.0,84,0.00,,,0.00,248.0,meteohub,2013-03-26 15:09:00,
2013-03-26 10:14:00,17.2,12.9,30.43,WNW,298,3.0,7.0,83,0.00,,,0.00,411.0,meteohub,2013-03-26 15:14:00,
2013-03-26 10:19:00,17.8,13.5,30.43,WNW,290,1.0,7.0,83,0.00,,,0.00,339.0,meteohub,2013-03-26 15:19:00,
2013-03-26 10:24:00,18.0,13.5,30.43,West,269,4.0,7.0,82,0.00,,,0.00,441.0,meteohub,2013-03-26 15:24:00,
2013-03-26 10:29:00,18.0,13.5,30.43,WNW,294,2.0,6.0,82,0.00,,,0.00,480.0,meteohub,2013-03-26 15:29:00,
2013-03-26 10:34:00,18.3,13.8,30.43,NNW,333,3.0,6.0,82,0.00,,,0.00,497.0,meteohub,2013-03-26 15:34:00,
2013-03-26 10:39:00,18.9,14.0,30.43,West,271,4.0,6.0,81,0.00,,,0.00,512.0,meteohub,2013-03-26 15:39:00,
2013-03-26 10:44:00,18.7,14.2,30.43,West,269,3.0,6.0,82,0.00,,,0.00,524.0,meteohub,2013-03-26 15:44:00,
2013-03-26 10:49:00,19.0,14.2,30.43,West,260,4.0,7.0,81,0.00,,,0.00,536.0,meteohub,2013-03-26 15:49:00,
2013-03-26 10:54:00,19.2,14.4,30.43,West,267,4.0,7.0,81,0.00,,,0.00,550.0,meteohub,2013-03-26 15:54:00,
2013-03-26 10:59:00,19.4,14.5,30.43,West,261,4.0,7.0,81,0.00,,,0.00,563.0,meteohub,2013-03-26 15:59:00,
2013-03-26 11:04:00,19.8,14.9,30.43,West,280,3.0,7.0,81,0.00,,,0.00,571.0,meteohub,2013-03-26 16:04:00,
2013-03-26 11:09:00,19.8,14.5,30.43,WNW,291,2.0,7.0,80,0.00,,,0.00,585.0,meteohub,2013-03-26 16:09:00,
2013-03-26 11:14:00,19.9,14.7,30.43,West,269,5.0,7.0,80,0.00,,,0.00,598.0,meteohub,2013-03-26 16:14:00,
2013-03-26 11:19:00,20.7,15.8,30.43,WNW,290,3.0,7.0,81,0.00,,,0.00,605.0,meteohub,2013-03-26 16:19:00,
2013-03-26 11:24:00,20.7,15.3,30.43,West,273,4.0,7.0,79,0.00,,,0.00,615.0,meteohub,2013-03-26 16:24:00,
2013-03-26 11:29:00,21.2,16.0,30.43,West,259,5.0,7.0,80,0.00,,,0.00,626.0,meteohub,2013-03-26 16:29:00,
2013-03-26 11:35:00,21.4,15.6,30.43,West,266,5.0,7.0,78,0.00,,,0.00,638.0,meteohub,2013-03-26 16:35:00,
2013-03-26 11:40:00,21.6,16.3,30.43,West,278,1.0,7.0,80,0.00,,,0.00,647.0,meteohub,2013-03-26 16:40:00,
2013-03-26 11:45:00,21.7,16.0,30.43,West,271,5.0,7.0,78,0.00,,,0.00,654.0,meteohub,2013-03-26 16:45:00,
2013-03-26 11:50:00,21.7,16.2,30.43,West,265,4.0,7.0,79,0.00,,,0.00,663.0,meteohub,2013-03-26 16:50:00,
2013-03-26 11:55:00,21.9,16.2,30.43,WSW,239,6.0,7.0,78,0.00,,,0.00,673.0,meteohub,2013-03-26 16:55:00,
2013-03-26 12:00:00,22.6,16.9,30.43,WSW,248,5.0,7.0,78,0.00,,,0.00,682.0,meteohub,2013-03-26 17:00:00,
2013-03-26 12:05:00,22.8,16.7,30.43,West,262,4.0,7.0,77,0.00,,,0.00,689.0,meteohub,2013-03-26 17:05:00,
2013-03-26 12:10:00,22.6,16.5,30.43,West,280,4.0,7.0,77,0.00,,,0.00,698.0,meteohub,2013-03-26 17:10:00,
2013-03-26 12:15:00,22.8,17.1,30.43,WNW,284,3.0,7.0,78,0.00,,,0.00,703.0,meteohub,2013-03-26 17:15:00,
2013-03-26 12:20:00,23.2,17.4,30.42,WSW,244,4.0,7.0,78,0.00,,,0.00,712.0,meteohub,2013-03-26 17:20:00,
2013-03-26 12:25:00,23.0,17.2,30.43,West,261,4.0,7.0,78,0.00,,,0.00,717.0,meteohub,2013-03-26 17:25:00,
2013-03-26 12:30:00,23.4,17.6,30.43,West,273,4.0,7.0,78,0.00,,,0.00,722.0,meteohub,2013-03-26 17:30:00,
2013-03-26 12:35:00,23.7,17.6,30.43,West,277,2.0,7.0,77,0.00,,,0.00,728.0,meteohub,2013-03-26 17:35:00,
2013-03-26 12:40:00,24.3,18.1,30.43,West,263,5.0,7.0,77,0.00,,,0.00,735.0,meteohub,2013-03-26 17:40:00,
2013-03-26 12:45:00,24.3,18.3,30.42,WNW,292,3.0,7.0,78,0.00,,,0.00,740.0,meteohub,2013-03-26 17:45:00,
2013-03-26 12:50:00,24.6,18.5,30.42,WSW,252,3.0,7.0,77,0.00,,,0.00,744.0,meteohub,2013-03-26 17:50:00,
2013-03-26 12:55:00,24.8,18.7,30.42,West,275,3.0,7.0,77,0.00,,,0.00,747.0,meteohub,2013-03-26 17:55:00,
2013-03-26 13:00:00,25.3,19.2,30.42,WSW,254,5.0,7.0,77,0.00,,,0.00,751.0,meteohub,2013-03-26 18:00:00,
2013-03-26 13:05:00,25.2,18.7,30.42,West,278,3.0,7.0,76,0.00,,,0.00,754.0,meteohub,2013-03-26 18:05:00,
2013-03-26 13:10:00,25.5,19.4,30.42,West,267,3.0,7.0,77,0.00,,,0.00,756.0,meteohub,2013-03-26 18:10:00,
2013-03-26 13:15:00,25.3,18.5,30.42,West,259,5.0,7.0,75,0.00,,,0.00,758.0,meteohub,2013-03-26 18:15:00,
2013-03-26 13:20:00,25.3,19.2,30.42,West,269,4.0,7.0,77,0.00,,,0.00,761.0,meteohub,2013-03-26 18:20:00,
2013-03-26 13:25:00,25.7,18.9,30.42,NNW,336,2.0,6.0,75,0.00,,,0.00,763.0,meteohub,2013-03-26 18:25:00,
2013-03-26 13:30:00,25.5,19.0,30.42,West,273,5.0,7.0,76,0.00,,,0.00,763.0,meteohub,2013-03-26 18:30:00,
2013-03-26 13:35:00,25.9,19.4,30.41,West,277,4.0,7.0,76,0.00,,,0.00,763.0,meteohub,2013-03-26 18:35:00,
2013-03-26 13:40:00,26.2,19.8,30.42,West,263,3.0,7.0,76,0.00,,,0.00,765.0,meteohub,2013-03-26 18:40:00,
2013-03-26 13:45:00,26.4,19.6,30.41,WNW,283,2.0,6.0,75,0.00,,,0.00,766.0,meteohub,2013-03-26 18:45:00,
2013-03-26 13:50:00,27.0,18.9,30.41,NW,304,3.0,6.0,71,0.00,,,0.00,765.0,meteohub,2013-03-26 18:50:00,
2013-03-26 13:55:00,27.1,19.0,30.41,WSW,249,3.0,6.0,71,0.00,,,0.00,765.0,meteohub,2013-03-26 18:55:00,
2013-03-26 14:00:00,27.1,19.0,30.41,West,273,2.0,6.0,71,0.00,,,0.00,765.0,meteohub,2013-03-26 19:00:00,
2013-03-26 14:05:00,26.8,19.0,30.41,West,261,3.0,6.0,72,0.00,,,0.00,761.0,meteohub,2013-03-26 19:05:00,
2013-03-26 14:10:00,27.0,19.2,30.41,WNW,294,0.0,6.0,72,0.00,,,0.00,759.0,meteohub,2013-03-26 19:10:00,
2013-03-26 14:15:00,27.0,18.9,30.41,West,265,3.0,7.0,71,0.00,,,0.00,752.0,meteohub,2013-03-26 19:15:00,
2013-03-26 14:20:00,27.1,19.4,30.41,West,259,2.0,7.0,72,0.00,,,0.00,754.0,meteohub,2013-03-26 19:20:00,
2013-03-26 14:25:00,27.1,19.4,30.41,West,275,3.0,7.0,72,0.00,,,0.00,751.0,meteohub,2013-03-26 19:25:00,
2013-03-26 14:30:00,27.3,19.6,30.41,NW,304,1.0,6.0,72,0.00,,,0.00,747.0,meteohub,2013-03-26 19:30:00,
2013-03-26 14:35:00,27.7,19.8,30.41,West,270,4.0,6.0,72,0.00,,,0.00,744.0,meteohub,2013-03-26 19:35:00,
2013-03-26 14:40:00,27.1,19.9,30.40,WNW,289,3.0,6.0,74,0.00,,,0.00,738.0,meteohub,2013-03-26 19:40:00,
2013-03-26 14:45:00,27.5,19.9,30.40,West,259,2.0,6.0,73,0.00,,,0.00,735.0,meteohub,2013-03-26 19:45:00,
2013-03-26 14:50:00,27.7,19.8,30.40,West,272,4.0,6.0,72,0.00,,,0.00,731.0,meteohub,2013-03-26 19:50:00,
2013-03-26 14:55:00,27.3,20.1,30.40,WSW,244,4.0,6.0,74,0.00,,,0.00,722.0,meteohub,2013-03-26 19:55:00,
2013-03-26 15:00:00,27.9,19.9,30.40,WNW,284,2.0,6.0,72,0.00,,,0.00,715.0,meteohub,2013-03-26 20:00:00,
2013-03-26 15:05:00,27.9,19.9,30.40,NNE,16,1.0,6.0,72,0.00,,,0.00,710.0,meteohub,2013-03-26 20:05:00,
2013-03-26 15:10:00,28.0,20.1,30.40,SW,232,1.0,6.0,72,0.00,,,0.00,707.0,meteohub,2013-03-26 20:10:00,
2013-03-26 15:15:00,28.0,20.1,30.40,NW,315,3.0,6.0,72,0.00,,,0.00,700.0,meteohub,2013-03-26 20:15:00,
2013-03-26 15:20:00,28.0,20.5,30.40,West,265,5.0,7.0,73,0.00,,,0.00,691.0,meteohub,2013-03-26 20:20:00,
2013-03-26 15:25:00,27.9,20.7,30.40,WSW,238,3.0,7.0,74,0.00,,,0.00,684.0,meteohub,2013-03-26 20:25:00,
2013-03-26 15:30:00,28.0,20.8,30.40,WSW,248,4.0,7.0,74,0.00,,,0.00,673.0,meteohub,2013-03-26 20:30:00,
2013-03-26 15:35:00,28.0,20.5,30.39,West,279,4.0,6.0,73,0.00,,,0.00,666.0,meteohub,2013-03-26 20:35:00,
2013-03-26 15:40:00,28.2,20.7,30.39,West,272,4.0,6.0,73,0.00,,,0.00,577.0,meteohub,2013-03-26 20:40:00,
2013-03-26 15:45:00,28.6,21.7,30.38,WNW,289,1.0,6.0,75,0.00,,,0.00,622.0,meteohub,2013-03-26 20:45:00,
2013-03-26 15:50:00,28.6,21.0,30.38,NW,308,2.0,6.0,73,0.00,,,0.00,315.0,meteohub,2013-03-26 20:50:00,
2013-03-26 15:55:00,28.6,21.0,30.38,NNE,28,6.0,6.0,73,0.00,,,0.00,628.0,meteohub,2013-03-26 20:55:00,
2013-03-26 16:00:00,28.2,20.7,30.38,West,274,3.0,6.0,73,0.00,,,0.00,531.0,meteohub,2013-03-26 21:00:00,
2013-03-26 16:05:00,28.2,20.7,30.38,NNW,329,0.0,6.0,73,0.00,,,0.00,466.0,meteohub,2013-03-26 21:05:00,
2013-03-26 16:10:00,28.6,21.0,30.38,West,260,3.0,6.0,73,0.00,,,0.00,459.0,meteohub,2013-03-26 21:10:00,
2013-03-26 16:16:00,27.9,19.9,30.38,SW,230,1.0,5.0,72,0.00,,,0.00,392.0,meteohub,2013-03-26 21:16:00,
2013-03-26 16:21:00,28.2,21.0,30.38,NNW,333,2.0,5.0,74,0.00,,,0.00,192.0,meteohub,2013-03-26 21:21:00,
2013-03-26 16:26:00,28.2,20.7,30.38,WSW,244,2.0,5.0,73,0.00,,,0.00,283.0,meteohub,2013-03-26 21:26:00,
2013-03-26 16:31:00,28.4,21.2,30.38,West,276,1.0,6.0,74,0.00,,,0.00,244.0,meteohub,2013-03-26 21:31:00,
2013-03-26 16:36:00,28.2,20.7,30.38,West,271,1.0,6.0,73,0.00,,,0.00,81.0,meteohub,2013-03-26 21:36:00,
2013-03-26 16:41:00,28.0,20.8,30.38,North,355,1.0,6.0,74,0.00,,,0.00,202.0,meteohub,2013-03-26 21:41:00,
2013-03-26 16:46:00,28.0,20.8,30.37,WNW,296,2.0,5.0,74,0.00,,,0.00,60.0,meteohub,2013-03-26 21:46:00,
2013-03-26 16:51:00,28.2,20.7,30.37,WSW,244,2.0,5.0,73,0.00,,,0.00,137.0,meteohub,2013-03-26 21:51:00,
2013-03-26 16:56:00,28.2,21.0,30.38,NW,316,2.0,5.0,74,0.00,,,0.00,186.0,meteohub,2013-03-26 21:56:00,
2013-03-26 17:01:00,28.2,21.0,30.37,North,0,0.0,5.0,74,0.00,,,0.00,160.0,meteohub,2013-03-26 22:01:00,
2013-03-26 17:06:00,27.9,20.7,30.37,NNE,15,3.0,4.0,74,0.00,,,0.00,183.0,meteohub,2013-03-26 22:06:00,
2013-03-26 17:12:00,28.2,21.4,30.37,West,269,1.0,4.0,75,0.00,,,0.00,98.0,meteohub,2013-03-26 22:12:00,
2013-03-26 17:17:00,28.6,21.7,30.37,WNW,290,0.0,4.0,75,0.00,,,0.00,81.0,meteohub,2013-03-26 22:17:00,
2013-03-26 17:21:00,28.4,21.2,30.37,North,5,2.0,5.0,74,0.00,,,0.00,163.0,meteohub,2013-03-26 22:21:00,
2013-03-26 17:27:00,28.0,21.2,30.37,NW,317,1.0,5.0,75,0.00,,,0.00,185.0,meteohub,2013-03-26 22:27:00,
2013-03-26 17:32:00,28.2,21.4,30.37,NE,35,0.0,5.0,75,0.00,,,0.00,163.0,meteohub,2013-03-26 22:32:00,
2013-03-26 17:37:00,28.2,21.0,30.37,North,10,3.0,5.0,74,0.00,,,0.00,81.0,meteohub,2013-03-26 22:37:00,
2013-03-26 17:42:00,28.0,21.2,30.37,NNW,331,2.0,5.0,75,0.00,,,0.00,69.0,meteohub,2013-03-26 22:42:00,
2013-03-26 17:47:00,27.9,21.2,30.36,North,0,4.0,7.0,76,0.00,,,0.00,163.0,meteohub,2013-03-26 22:47:00,
2013-03-26 17:52:00,27.7,21.0,30.37,NE,49,2.0,7.0,76,0.00,,,0.00,65.0,meteohub,2013-03-26 22:52:00,
2013-03-26 17:57:00,27.3,21.0,30.37,NNW,331,2.0,7.0,77,0.00,,,0.00,204.0,meteohub,2013-03-26 22:57:00,
2013-03-26 18:02:00,27.3,21.0,30.37,North,355,1.0,4.0,77,0.00,,,0.00,98.0,meteohub,2013-03-26 23:02:00,
2013-03-26 18:07:00,27.1,20.7,30.37,NE,54,0.0,4.0,76,0.00,,,0.00,109.0,meteohub,2013-03-26 23:07:00,
2013-03-26 18:12:00,27.1,20.8,30.37,North,9,2.0,5.0,77,0.00,,,0.00,151.0,meteohub,2013-03-26 23:12:00,
2013-03-26 18:17:00,27.0,20.7,30.37,NE,34,0.0,5.0,77,0.00,,,0.00,190.0,meteohub,2013-03-26 23:17:00,
2013-03-26 18:22:00,27.0,21.0,30.37,NNE,31,2.0,5.0,78,0.00,,,0.00,127.0,meteohub,2013-03-26 23:22:00,
2013-03-26 18:28:00,27.0,21.0,30.37,North,11,2.0,4.0,78,0.00,,,0.00,109.0,meteohub,2013-03-26 23:28:00,
2013-03-26 18:33:00,27.0,20.7,30.36,North,11,0.0,4.0,77,0.00,,,0.00,81.0,meteohub,2013-03-26 23:33:00,
2013-03-26 18:37:00,27.0,20.7,30.36,North,0,0.0,4.0,77,0.00,,,0.00,77.0,meteohub,2013-03-26 23:37:00,
2013-03-26 18:42:00,27.0,21.0,30.37,North,0,0.0,4.0,78,0.00,,,0.00,62.0,meteohub,2013-03-26 23:42:00,
2013-03-26 18:47:00,26.6,20.7,30.37,NNE,19,1.0,3.0,78,0.00,,,0.00,65.0,meteohub,2013-03-26 23:47:00,
2013-03-26 18:52:00,26.4,20.8,30.36,NNE,22,0.0,4.0,79,0.00,,,0.00,74.0,meteohub,2013-03-26 23:52:00,
2013-03-26 18:57:00,26.4,20.8,30.36,NE,53,0.0,4.0,79,0.00,,,0.00,58.0,meteohub,2013-03-26 23:57:00,
2013-03-26 19:02:00,26.2,20.7,30.37,NE,53,0.0,3.0,79,0.00,,,0.00,51.0,meteohub,2013-03-27 00:02:00,
2013-03-26 19:07:00,26.2,20.7,30.37,NE,53,0.0,3.0,79,0.00,,,0.00,23.0,meteohub,2013-03-27 00:07:00,
2013-03-26 19:13:00,26.1,20.5,30.37,NE,38,0.0,2.0,79,0.00,,,0.00,18.0,meteohub,2013-03-27 00:13:00,
2013-03-26 19:18:00,25.5,20.3,30.37,NE,38,0.0,2.0,80,0.00,,,0.00,16.0,meteohub,2013-03-27 00:18:00,
2013-03-26 19:23:00,25.3,20.1,30.37,NE,38,0.0,2.0,80,0.00,,,0.00,12.0,meteohub,2013-03-27 00:23:00,
2013-03-26 19:28:00,25.2,20.1,30.37,NE,38,0.0,2.0,81,0.00,,,0.00,11.0,meteohub,2013-03-27 00:28:00,
2013-03-26 19:33:00,24.8,19.8,30.37,NE,38,0.0,2.0,81,0.00,,,0.00,7.0,meteohub,2013-03-27 00:33:00,
2013-03-26 19:38:00,24.8,20.1,30.37,NE,38,0.0,1.0,82,0.00,,,0.00,5.0,meteohub,2013-03-27 00:38:00,
2013-03-26 19:43:00,24.6,19.9,30.37,NE,38,0.0,0.0,82,0.00,,,0.00,0.0,meteohub,2013-03-27 00:43:00,
2013-03-26 19:48:00,24.4,19.8,30.36,NE,38,0.0,1.0,82,0.00,,,0.00,0.0,meteohub,2013-03-27 00:48:00,
2013-03-26 19:53:00,24.4,19.9,30.36,NE,38,0.0,1.0,83,0.00,,,0.00,0.0,meteohub,2013-03-27 00:53:00,
2013-03-26 19:58:00,24.3,19.8,30.36,NE,38,0.0,1.0,83,0.00,,,0.00,0.0,meteohub,2013-03-27 00:58:00,
2013-03-26 20:03:00,23.9,19.8,30.36,NE,38,0.0,1.0,84,0.00,,,0.00,0.0,meteohub,2013-03-27 01:03:00,
2013-03-26 20:08:00,23.7,19.6,30.36,NE,38,1.0,1.0,84,0.00,,,0.00,0.0,meteohub,2013-03-27 01:08:00,
2013-03-26 20:13:00,23.5,19.4,30.36,NE,38,0.0,1.0,84,0.00,,,0.00,0.0,meteohub,2013-03-27 01:13:00,
2013-03-26 20:18:00,23.5,19.8,30.36,NE,38,0.0,1.0,85,0.00,,,0.00,0.0,meteohub,2013-03-27 01:18:00,
2013-03-26 20:23:00,23.4,19.6,30.36,NE,38,0.0,1.0,85,0.00,,,0.00,0.0,meteohub,2013-03-27 01:23:00,
2013-03-26 20:28:00,23.0,19.4,30.36,NNE,27,2.0,2.0,86,0.00,,,0.00,0.0,meteohub,2013-03-27 01:28:00,
2013-03-26 20:33:00,22.8,19.2,30.36,NNE,27,0.0,1.0,86,0.00,,,0.00,0.0,meteohub,2013-03-27 01:33:00,
2013-03-26 20:38:00,22.6,19.0,30.36,NNE,27,0.0,3.0,86,0.00,,,0.00,0.0,meteohub,2013-03-27 01:38:00,
2013-03-26 20:43:00,22.5,18.9,30.36,NNE,27,0.0,3.0,86,0.00,,,0.00,0.0,meteohub,2013-03-27 01:43:00,
2013-03-26 20:48:00,22.3,19.0,30.36,NNE,27,0.0,1.0,87,0.00,,,0.00,0.0,meteohub,2013-03-27 01:48:00,
2013-03-26 20:53:00,22.3,19.0,30.36,NNE,27,0.0,1.0,87,0.00,,,0.00,0.0,meteohub,2013-03-27 01:53:00,
2013-03-26 20:58:00,21.9,18.7,30.36,NNE,27,0.0,0.0,87,0.00,,,0.00,0.0,meteohub,2013-03-27 01:58:00,
2013-03-26 21:03:00,21.9,18.7,30.36,NNE,27,0.0,0.0,87,0.00,,,0.00,0.0,meteohub,2013-03-27 02:03:00,
2013-03-26 21:08:00,21.7,18.5,30.36,NNE,27,0.0,0.0,87,0.00,,,0.00,0.0,meteohub,2013-03-27 02:08:00,
2013-03-26 21:13:00,21.6,18.3,30.36,NNE,27,0.0,0.0,87,0.00,,,0.00,0.0,meteohub,2013-03-27 02:13:00,
2013-03-26 21:18:00,21.6,18.5,30.37,NNE,27,0.0,0.0,88,0.00,,,0.00,0.0,meteohub,2013-03-27 02:18:00,
2013-03-26 21:23:00,21.4,18.3,30.37,NNE,27,0.0,0.0,88,0.00,,,0.00,0.0,meteohub,2013-03-27 02:23:00,
2013-03-26 21:28:00,21.0,18.0,30.37,NNE,27,0.0,0.0,88,0.00,,,0.00,0.0,meteohub,2013-03-27 02:28:00,
2013-03-26 21:33:00,20.7,17.6,30.37,NNE,27,0.0,0.0,88,0.00,,,0.00,0.0,meteohub,2013-03-27 02:33:00,
2013-03-26 21:38:00,20.5,17.4,30.37,NNE,27,0.0,0.0,88,0.00,,,0.00,0.0,meteohub,2013-03-27 02:38:00,
2013-03-26 21:43:00,20.5,17.8,30.37,NNE,27,0.0,0.0,89,0.00,,,0.00,0.0,meteohub,2013-03-27 02:43:00,
2013-03-26 21:48:00,20.5,17.8,30.38,NNE,27,0.0,0.0,89,0.00,,,0.00,0.0,meteohub,2013-03-27 02:48:00,
2013-03-26 21:53:00,20.3,17.6,30.38,NNE,27,0.0,0.0,89,0.00,,,0.00,0.0,meteohub,2013-03-27 02:53:00,
2013-03-26 21:58:00,20.1,17.4,30.38,NNE,27,0.0,0.0,89,0.00,,,0.00,0.0,meteohub,2013-03-27 02:58:00,
2013-03-26 22:03:00,20.1,17.4,30.38,NNE,27,0.0,0.0,89,0.00,,,0.00,0.0,meteohub,2013-03-27 03:03:00,
2013-03-26 22:08:00,19.8,17.1,30.38,NNE,27,0.0,0.0,89,0.00,,,0.00,0.0,meteohub,2013-03-27 03:08:00,
2013-03-26 22:13:00,19.8,17.2,30.38,NNE,27,0.0,0.0,90,0.00,,,0.00,0.0,meteohub,2013-03-27 03:13:00,
2013-03-26 22:18:00,19.6,16.9,30.39,NNE,27,0.0,0.0,89,0.00,,,0.00,0.0,meteohub,2013-03-27 03:18:00,
2013-03-26 22:23:00,19.6,17.1,30.39,NNE,27,0.0,0.0,90,0.00,,,0.00,0.0,meteohub,2013-03-27 03:23:00,
2013-03-26 22:28:00,19.8,17.2,30.39,NNE,27,0.0,0.0,90,0.00,,,0.00,0.0,meteohub,2013-03-27 03:28:00,
2013-03-26 22:34:00,19.6,17.1,30.39,NNE,27,0.0,0.0,90,0.00,,,0.00,0.0,meteohub,2013-03-27 03:34:00,
2013-03-26 22:39:00,19.8,17.6,30.39,NNE,27,0.0,0.0,91,0.00,,,0.00,0.0,meteohub,2013-03-27 03:39:00,
2013-03-26 22:44:00,19.8,17.6,30.40,NNE,27,0.0,0.0,91,0.00,,,0.00,0.0,meteohub,2013-03-27 03:44:00,
2013-03-26 22:49:00,19.6,17.4,30.39,NNE,27,0.0,0.0,91,0.00,,,0.00,0.0,meteohub,2013-03-27 03:49:00,
2013-03-26 22:54:00,19.6,17.4,30.39,NNE,27,0.0,0.0,91,0.00,,,0.00,0.0,meteohub,2013-03-27 03:54:00,
2013-03-26 22:59:00,19.6,17.4,30.39,NNE,27,0.0,0.0,91,0.00,,,0.00,0.0,meteohub,2013-03-27 03:59:00,
2013-03-26 23:00:00,19.6,17.4,30.39,NNE,27,0.0,0.0,91,0.00,,,0.00,0.0,meteohub,2013-03-27 04:00:00,
2013-03-26 23:05:00,19.6,17.4,30.39,NNE,27,0.0,0.0,91,0.00,,,0.00,0.0,meteohub,2013-03-27 04:05:00,
2013-03-26 23:10:00,19.6,17.4,30.39,NNE,27,0.0,0.0,91,0.00,,,0.00,0.0,meteohub,2013-03-27 04:10:00,
2013-03-26 23:15:00,19.6,17.4,30.39,NNE,27,0.0,0.0,91,0.00,,,0.00,0.0,meteohub,2013-03-27 04:15:00,
2013-03-26 23:20:00,19.2,17.1,30.39,NNE,27,0.0,0.0,91,0.00,,,0.00,0.0,meteohub,2013-03-27 04:20:00,
2013-03-26 23:25:00,19.0,16.9,30.40,NNE,27,0.0,0.0,91,0.00,,,0.00,0.0,meteohub,2013-03-27 04:25:00,
2013-03-26 23:30:00,18.9,16.7,30.39,NNE,27,0.0,0.0,91,0.00,,,0.00,0.0,meteohub,2013-03-27 04:30:00,
2013-03-26 23:35:00,18.7,16.7,30.39,NNE,27,0.0,0.0,92,0.00,,,0.00,0.0,meteohub,2013-03-27 04:35:00,
2013-03-26 23:40:00,18.7,16.7,30.39,NNE,27,0.0,0.0,92,0.00,,,0.00,0.0,meteohub,2013-03-27 04:40:00,
2013-03-26 23:45:00,18.7,16.7,30.39,NNE,27,0.0,0.0,92,0.00,,,0.00,0.0,meteohub,2013-03-27 04:45:00,
2013-03-26 23:50:00,18.9,16.9,30.39,NNE,27,0.0,0.0,92,0.00,,,0.00,0.0,meteohub,2013-03-27 04:50:00,
2013-03-26 23:55:00,19.0,17.1,30.39,NNE,27,0.0,0.0,92,0.00,,,0.00,0.0,meteohub,2013-03-27 04:55:00,